Regional Weather Roundup
Issued by NWS

Home | Current Version | Previous Version | Text Only | Print | Product List | Glossary On
Versions: 1 2 3 4 5 6 7 8 9 10 11 12 13 14 15 16 17 18 19 20 21 22 23 24 25 26 27 28 29 30 31 32 33 34 35 36 37 38 39 40 41 42 43 44 45 46 47 48 49 50
000
ASUS43 KMKX 301100
RWRWI

WISCONSIN REGIONAL WEATHER ROUNDUP
NATIONAL WEATHER SERVICE MILWAUKEE/SULLIVAN WI
600 AM CDT TUE JUN 30 2015

NOTE: "FAIR" INDICATES FEW OR NO CLOUDS BELOW 12,000 FEET WITH NO
SIGNIFICANT WEATHER AND/OR OBSTRUCTIONS TO VISIBILITY.

WIZ001-002-006>008-014>016-023>028-301200-
NORTHWEST WISCONSIN

CITY           SKY/WX    TMP DP  RH WIND       PRES   REMARKS
SUPERIOR ARPT  CLOUDY    60  58  94 NE8       29.92R
ASHLAND        CLOUDY    54  54 100 E10       29.94R
HAYWARD        CLOUDY    57  54  89 NE10      29.92R
SIREN          CLEAR     54  53  97 CALM      29.90R FOG
CUMBERLAND     CLOUDY    59  55  88 NE10      29.89R
RICE LAKE      CLOUDY    59  58  96 CALM      29.90R
CHETEK         CLOUDY    59  59 100 N3        29.89R
LADYSMITH      CLOUDY    60  58  92 N5        29.90R
EAU CLAIRE     CLOUDY    58  57  97 NE13      29.87R FOG
MENOMONIE      PTCLDY    59  58  98 NW7       29.87R FOG
NEW RICHMOND   MOCLDY    59  59 100 N7        29.89R FOG
OSCEOLA        CLEAR     59  59 100 CALM      29.92R FOG
$$

WIZ003>005-009-010-017-018-301200-
NORTH CENTRAL WISCONSIN

CITY           SKY/WX    TMP DP  RH WIND       PRES   REMARKS
MANITOWISH WTR CLOUDY    52  52 100 N9        29.89R FOG
ARBOR VITAE    CLOUDY    57  55  92 N10G16    29.88R
WOODRUFF       CLOUDY    57  55  92 N10G16    29.88R
RHINELANDER    CLOUDY    57  54  89 N7        29.87R
EAGLE RIVER    DRIZZLE   54  54 100 N12       29.86R
LAND O LAKES   CLOUDY    53  53 100 N10       29.89R FOG
PHILLIPS       CLOUDY    58  56  95 N7        29.87R
TOMAHAWK       CLOUDY    57  56  95 CALM      29.86R
MEDFORD        CLOUDY    57  56  96 N6        29.86R
MERRILL        NOT AVBL
$$

WIZ029-030-035-036-043>047-301200-
CENTRAL WISCONSIN

CITY           SKY/WX    TMP DP  RH WIND       PRES   REMARKS
WAUSAU         MOCLDY    61  57  87 N6        29.83R
MOSINEE        NOT AVBL
MARSHFIELD     CLEAR     60  56  86 N6        29.85R FOG
STEVENS POINT  MOCLDY    58  57  96 N3        29.83R FOG
WAUPACA        CLEAR     59  58  99 NW3       29.81R FOG
WAUTOMA        NOT AVBL
WISC RAPIDS    CLOUDY    61  57  87 N8        29.84R
CAMP DOUGLAS   CLOUDY    55  55 100 NW5       29.83R FOG
$$

WIZ011>013-019>022-031-037>040-048>050-301200-
NORTHEAST WISCONSIN

CITY           SKY/WX    TMP DP  RH WIND       PRES   REMARKS
ANTIGO         CLOUDY    58  57  97 N6        29.83R
SHAWANO        CLOUDY    61  59  94 N3        29.81R
OCONTO         CLOUDY    61  61 100 N9        29.79R
STURGEON BAY   CLOUDY    59  55  88 CALM      29.80S
GREEN BAY      MOCLDY    62  60  93 N10       29.79R
MANITOWOC      CLOUDY    63  61  94 MISG      29.76R FOG
APPLETON       MOCLDY    57  57 100 N7        29.80R FOG
CLINTONVILLE   CLOUDY   N/A N/A N/A N6        29.81R
OSHKOSH        MOCLDY    61  58  90 NW5       29.79R FOG
$$

WIZ032>034-041-042-053>061-301200-
SOUTHWEST WISCONSIN

CITY           SKY/WX    TMP DP  RH WIND       PRES   REMARKS
LA CROSSE      FOG       61  60  97 N5        29.84R VSB 1/4
SPARTA         FOG       53  53  98 CALM      29.85R VSB 1/4
VIROQUA        CLOUDY    58  58 100 NW6       29.85R VSB 1/4
BOSCOBEL       FOG       59  58  96 CALM      29.84R VSB 1/4
PRAIRIE DU CHI CLEAR     58  57  96 CALM      29.83S FOG
PLATTEVILLE    CLEAR     58  57  98 W6        29.83S
$$

WIZ056-057-062-063-064-067-068-301200-
SOUTH CENTRAL WISCONSIN

CITY           SKY/WX    TMP DP  RH WIND       PRES   REMARKS
REEDSBURG      CLEAR     56  56 100 CALM      29.81R
BARABOO/DELLS  CLOUDY    56  55  95 CALM      29.82R FOG
LONE ROCK      NOT AVBL
MINERAL POINT  CLEAR     59  57  94 NW3       29.83R FOG
MADISON        PTCLDY    59  57  93 NW3       29.81R FOG
MIDDLETON      MOCLDY    60  59  99 NW5       29.82R
WATERTOWN      CLEAR     58  58 100 W3        29.79R
MONROE         CLOUDY    59  57  94 W9        29.81S FOG
JANESVILLE     CLEAR     79  61  53 NW5       29.79R FOG     HX  80
$$

WIZ051-052-058>065-066-070>072-301200-
SOUTHEAST WISCONSIN

CITY           SKY/WX    TMP DP  RH WIND       PRES   REMARKS
MILWAUKEE      PTCLDY    62  57  83 NW6       29.77R
WAUKESHA       CLEAR     55  55 100 W5        29.79R
MILWAUKEE/TIMM CLEAR     59  55  88 W5        29.78R
RACINE         PTCLDY    61  59  93 CALM      29.79R FOG
BURLINGTON     CLEAR     56  55  99 CALM      29.78R FOG
KENOSHA        CLEAR     59  57  93 W6        29.78R FOG
FOND DU LAC    CLOUDY    61  59  93 NW7       29.79R FOG
SHEBOYGAN      CLOUDY    62  59  90 NW7       29.77R FOG
WEST BEND      PTCLDY    59  55  88 W9        29.78R
JUNEAU         CLEAR     57  56  97 CALM      29.80R FOG
$$

LSZ147-162-301200-
LAKE SUPERIOR

STATION/POSITION TIME  TEMP    WIND        PRES    WAVE
                       AIR SEA DIR/SP/G            HT/PER
                 (UTC) (F)     (DEG/KT/KT) (MB)    (FT/S)
W MID LAKE BUOY  0950   43 38   10/  2/  4 1013.3R   1
DEVILS ISLAND    1000   55      60/ 17/ 20 1013.4R
SAXON HARBOR     1040   56      60/ 19/ 23 1013.2R
$$

LMZ867-665-643>646-301200-
LAKE MICHIGAN

STATION/POSITION TIME  TEMP    WIND        PRES    WAVE
                       AIR SEA DIR/SP/G            HT/PER
                 (UTC) (F)     (DEG/KT/KT) (MB)    (FT/S)
CHAMBERS ISLAND  1000   64     360/  6/  7 1008.1R
S GREEN BAY BUOY 1030   64 70  100/ 10/ 12 1009.5R
N MID LAKE BUOY  0950   56 54   CALM  /  2 1008.2S   1
NORTHPORT PIER   1000   61      CALM  /  1 1008.1S
SISTER BAY       1044   60        CALM       N/A
ALGOMA LAKESHORE 1010             CALM       N/A
KEWAUNEE LAKESHO 1000   58     180/  4/  6 1006.9R
SHEBOYGAN LAKESH 1000   62     260/  2/  3 1007.7R
PORT WASHINGTON  1000   63     300/  4/  7 1008.5
ATWATER BUOY     1000   62 59  290/  8/  8 1009.1S
MILWAUKEE LAKESH 1000   64     300/  5/  7   N/A
KENOSHA   LAKESH 1000   63     290/  6/  7 1007.8S
$$

TC  - TEMPERATURE IN CELSIUS
VSB - VISIBILITY IN STATUTE MILES
WCI - WIND CHILL INDEX
HX  - HEAT INDEX




USA.gov is the U.S. government's official web portal to all federal, state and local government web resources and services.